| time (UTC) | temp F | wind direction | speed MPH | gust MPH | rain 1hr in | rain 24hr in | rain mn in | humidity % | barometer mb |
| 20260906111508 | 72 | 108 | 2.0 | 5.0 | 0.00 | 0.00 | 0.00 | 94 | 1014.6 |
| 20260906111008 | 72 | 107 | 2.0 | 5.0 | 0.00 | 0.00 | 0.00 | 94 | 1014.5 |
| 20260906110508 | 72 | 85 | 2.0 | 4.0 | 0.00 | 0.00 | 0.00 | 94 | 1014.5 |
| 20260906110008 | 72 | 85 | 2.0 | 6.0 | 0.00 | 0.00 | 0.00 | 94 | 1014.5 |
| 20260906105508 | 72 | 122 | 3.0 | 8.0 | 0.00 | 0.00 | 0.00 | 94 | 1014.4 |
| 20260906105008 | 72 | 114 | 2.0 | 6.0 | 0.00 | 0.00 | 0.00 | 94 | 1014.4 |
| 20260906104508 | 71 | 118 | 3.0 | 5.0 | 0.00 | 0.00 | 0.00 | 94 | 1014.4 |
| 20260906104008 | 71 | 113 | 3.0 | 10.0 | 0.00 | 0.00 | 0.00 | 94 | 1014.4 |
| 20260906103508 | 71 | 108 | 3.0 | 9.0 | 0.00 | 0.00 | 0.00 | 94 | 1014.2 |
| 20260906103008 | 71 | 122 | 2.0 | 7.0 | 0.00 | 0.00 | 0.00 | 94 | 1014.2 |
| 20260906102508 | 71 | 84 | 3.0 | 7.0 | 0.00 | 0.00 | 0.00 | 93 | 1014.0 |
| 20260906102352 | 71 | 92 | 3.0 | 5.0 | 0.00 | 0.00 | 0.00 | 93 | 1014.1 |
| 20260906102008 | 71 | 92 | 3.0 | 5.0 | 0.00 | 0.00 | 0.00 | 93 | 1014.1 |
| 20260906101508 | 71 | 116 | 3.0 | 8.0 | 0.00 | 0.00 | 0.00 | 93 | 1014.0 |
| 20260906101429 | 72 | 113 | 3.0 | 8.0 | 0.00 | 0.00 | 0.00 | 93 | 1013.9 |
| 20260906101042 | 72 | 113 | 3.0 | 8.0 | 0.00 | 0.00 | 0.00 | 93 | 1013.9 |
| 20260906101008 | 72 | 113 | 3.0 | 8.0 | 0.00 | 0.00 | 0.00 | 93 | 1013.9 |
| 20260906100632 | 72 | 96 | 3.0 | 7.0 | 0.00 | 0.00 | 0.00 | 92 | 1013.7 |
| 20260906100508 | 72 | 100 | 3.0 | 5.0 | 0.00 | 0.00 | 0.00 | 93 | 1013.8 |
| 20260906100039 | 72 | 96 | 3.0 | 7.0 | 0.00 | 0.00 | 0.00 | 92 | 1013.7 |
| 20260906100008 | 72 | 96 | 3.0 | 7.0 | 0.00 | 0.00 | 0.00 | 92 | 1013.7 |
| 20260906095509 | 72 | 99 | 3.0 | 8.0 | 0.00 | 0.00 | 0.00 | 92 | 1013.6 |
| 20260906095219 | 72 | 110 | 3.0 | 6.0 | 0.00 | 0.00 | 0.00 | 92 | 1013.5 |
| 20260906095008 | 72 | 110 | 3.0 | 6.0 | 0.00 | 0.00 | 0.00 | 92 | 1013.5 |
| 20260906094508 | 72 | 110 | 3.0 | 5.0 | 0.00 | 0.00 | 0.00 | 92 | 1013.4 |
| 20260906094008 | 72 | 86 | 3.0 | 6.0 | 0.00 | 0.00 | 0.00 | 92 | 1013.3 |
| 20260906093509 | 72 | 62 | 3.0 | 6.0 | 0.00 | 0.00 | 0.00 | 92 | 1013.3 |
| 20260906093008 | 72 | 114 | 3.0 | 4.0 | 0.00 | 0.00 | 0.00 | 92 | 1013.2 |
| 20260906092509 | 72 | 62 | 2.0 | 4.0 | 0.00 | 0.00 | 0.00 | 91 | 1013.2 |
| 20260906092009 | 73 | 112 | 2.0 | 4.0 | 0.00 | 0.00 | 0.00 | 91 | 1013.4 |
| 20260906091509 | 73 | 100 | 1.0 | 4.0 | 0.00 | 0.00 | 0.00 | 91 | 1013.4 |
| 20260906091009 | 73 | 111 | 1.0 | 4.0 | 0.00 | 0.00 | 0.00 | 91 | 1013.4 |
| 20260906090509 | 73 | 98 | 2.0 | 4.0 | 0.00 | 0.00 | 0.00 | 91 | 1013.3 |
| 20260906090009 | 73 | 116 | 2.0 | 4.0 | 0.00 | 0.00 | 0.00 | 90 | 1013.5 |
| 20260906085509 | 74 | 41 | 2.0 | 5.0 | 0.00 | 0.00 | 0.00 | 90 | 1013.5 |
| 20260906085009 | 74 | 44 | 2.0 | 4.0 | 0.00 | 0.00 | 0.00 | 90 | 1013.3 |
| 20260906084509 | 74 | 96 | 1.0 | 5.0 | 0.00 | 0.00 | 0.00 | 90 | 1013.1 |
| 20260906084009 | 74 | 86 | 2.0 | 3.0 | 0.00 | 0.00 | 0.00 | 89 | 1013.2 |
| 20260906083509 | 74 | 106 | 2.0 | 4.0 | 0.00 | 0.00 | 0.00 | 89 | 1013.4 |
| 20260906083009 | 75 | 114 | 2.0 | 3.0 | 0.00 | 0.00 | 0.00 | 89 | 1013.3 |
| 20260906082509 | 75 | 41 | 2.0 | 5.0 | 0.00 | 0.00 | 0.00 | 88 | 1013.3 |
| 20260906082009 | 75 | 105 | 2.0 | 4.0 | 0.00 | 0.00 | 0.00 | 88 | 1013.3 |
| 20260906081509 | 75 | 104 | 2.0 | 3.0 | 0.00 | 0.00 | 0.00 | 87 | 1013.3 |
| 20260906081009 | 76 | 60 | 2.0 | 4.0 | 0.00 | 0.00 | 0.00 | 87 | 1013.3 |
| 20260906080509 | 76 | 113 | 3.0 | 6.0 | 0.00 | 0.00 | 0.00 | 87 | 1013.3 |
| 20260906080009 | 76 | 110 | 3.0 | 6.0 | 0.00 | 0.00 | 0.00 | 86 | 1013.2 |
| 20260906075509 | 76 | 101 | 3.0 | 8.0 | 0.00 | 0.00 | 0.00 | 86 | 1013.0 |
| 20260906075009 | 76 | 62 | 2.0 | 5.0 | 0.00 | 0.00 | 0.00 | 86 | 1012.9 |
| 20260906074509 | 76 | 104 | 3.0 | 5.0 | 0.00 | 0.00 | 0.00 | 86 | 1013.0 |
| 20260906074009 | 76 | 96 | 3.0 | 6.0 | 0.00 | 0.00 | 0.00 | 86 | 1013.1 |
| 20260906073509 | 77 | 55 | 3.0 | 6.0 | 0.00 | 0.00 | 0.00 | 86 | 1013.1 |
| 20260906073009 | 77 | 43 | 3.0 | 8.0 | 0.00 | 0.00 | 0.00 | 86 | 1013.0 |
| 20260906072509 | 77 | 122 | 2.0 | 4.0 | 0.00 | 0.00 | 0.00 | 85 | 1012.9 |
| 20260906072009 | 77 | 108 | 2.0 | 3.0 | 0.00 | 0.00 | 0.00 | 85 | 1013.0 |
| 20260906071509 | 77 | 111 | 2.0 | 4.0 | 0.00 | 0.00 | 0.00 | 84 | 1013.0 |
| 20260906071009 | 78 | 104 | 2.0 | 4.0 | 0.00 | 0.00 | 0.00 | 83 | 1012.9 |
| 20260906070509 | 78 | 62 | 2.0 | 5.0 | 0.00 | 0.00 | 0.00 | 83 | 1013.1 |
| 20260906070009 | 78 | 96 | 2.0 | 7.0 | 0.00 | 0.00 | 0.00 | 82 | 1013.1 |
| 20260906065509 | 78 | 108 | 3.0 | 8.0 | 0.00 | 0.00 | 0.00 | 82 | 1013.1 |
| 20260906065009 | 78 | 110 | 3.0 | 8.0 | 0.00 | 0.00 | 0.00 | 82 | 1013.1 |
| 20260906064509 | 78 | 99 | 2.0 | 6.0 | 0.00 | 0.00 | 0.00 | 82 | 1013.2 |
| 20260906064009 | 78 | 117 | 2.0 | 4.0 | 0.00 | 0.00 | 0.00 | 82 | 1013.2 |
| 20260906063509 | 79 | 37 | 2.0 | 3.0 | 0.00 | 0.00 | 0.00 | 82 | 1013.4 |
| 20260906063009 | 79 | 109 | 2.0 | 4.0 | 0.00 | 0.00 | 0.00 | 81 | 1013.3 |
| 20260906062509 | 79 | 102 | 2.0 | 4.0 | 0.00 | 0.00 | 0.00 | 81 | 1013.2 |
| 20260906062009 | 79 | 98 | 2.0 | 3.0 | 0.00 | 0.00 | 0.00 | 80 | 1013.4 |
| 20260906061509 | 79 | 59 | 2.0 | 4.0 | 0.00 | 0.00 | 0.00 | 80 | 1013.6 |
| 20260906061009 | 79 | 43 | 2.0 | 4.0 | 0.00 | 0.00 | 0.00 | 80 | 1013.6 |
| 20260906060509 | 80 | 91 | 2.0 | 4.0 | 0.00 | 0.00 | 0.00 | 80 | 1013.7 |
| 20260906060009 | 80 | 100 | 2.0 | 6.0 | 0.00 | 0.00 | 0.00 | 80 | 1013.8 |
| 20260906055509 | 80 | 88 | 2.0 | 4.0 | 0.00 | 0.00 | 0.00 | 80 | 1013.9 |
| 20260906055009 | 80 | 114 | 2.0 | 4.0 | 0.00 | 0.00 | 0.00 | 80 | 1013.7 |
| 20260906054509 | 80 | 41 | 2.0 | 5.0 | 0.00 | 0.00 | 0.00 | 81 | 1013.7 |
| 20260906054009 | 80 | 50 | 2.0 | 4.0 | 0.00 | 0.00 | 0.00 | 81 | 1013.7 |
| 20260906053509 | 80 | 109 | 2.0 | 4.0 | 0.00 | 0.00 | 0.00 | 81 | 1013.7 |
| 20260906053009 | 81 | 115 | 2.0 | 4.0 | 0.00 | 0.00 | 0.00 | 82 | 1013.7 |
| 20260906052509 | 81 | 110 | 2.0 | 5.0 | 0.00 | 0.00 | 0.00 | 82 | 1013.7 |
| 20260906052009 | 81 | 87 | 2.0 | 5.0 | 0.00 | 0.00 | 0.00 | 82 | 1013.6 |
| 20260906051509 | 81 | 85 | 3.0 | 8.0 | 0.00 | 0.00 | 0.00 | 82 | 1013.5 |
| 20260906051009 | 81 | 115 | 3.0 | 6.0 | 0.00 | 0.00 | 0.00 | 82 | 1013.5 |
| 20260906050509 | 81 | 102 | 3.0 | 7.0 | 0.00 | 0.00 | 0.00 | 82 | 1013.4 |
| 20260906050009 | 82 | 108 | 3.0 | 6.0 | 0.00 | 0.00 | 0.00 | 82 | 1013.4 |
| 20260906045509 | 82 | 100 | 3.0 | 6.0 | 0.00 | 0.00 | 0.00 | 82 | 1013.5 |
| 20260906045009 | 82 | 95 | 4.0 | 8.0 | 0.00 | 0.00 | 0.00 | 82 | 1013.4 |
| 20260906044509 | 82 | 81 | 3.0 | 8.0 | 0.00 | 0.00 | 0.00 | 82 | 1013.4 |
| 20260906044009 | 82 | 106 | 2.0 | 8.0 | 0.00 | 0.00 | 0.00 | 81 | 1013.4 |
| 20260906043509 | 82 | 48 | 3.0 | 5.0 | 0.00 | 0.00 | 0.00 | 81 | 1013.4 |
| 20260906043009 | 83 | 101 | 4.0 | 8.0 | 0.00 | 0.00 | 0.00 | 80 | 1013.4 |
| 20260906042509 | 83 | 108 | 4.0 | 11.0 | 0.00 | 0.00 | 0.00 | 80 | 1013.3 |
| 20260906042427 | 83 | 116 | 2.0 | 6.0 | 0.00 | 0.00 | 0.00 | 80 | 1013.1 |
| 20260906042009 | 83 | 116 | 2.0 | 6.0 | 0.00 | 0.00 | 0.00 | 80 | 1013.1 |
| 20260906041509 | 83 | 96 | 2.0 | 6.0 | 0.00 | 0.00 | 0.00 | 79 | 1013.1 |
| 20260906041009 | 83 | 44 | 1.0 | 4.0 | 0.00 | 0.00 | 0.00 | 79 | 1013.0 |
| 20260906040509 | 83 | 168 | 1.0 | 3.0 | 0.00 | 0.00 | 0.00 | 79 | 1013.0 |
| 20260906040009 | 83 | 48 | 1.0 | 2.0 | 0.00 | 0.00 | 0.00 | 78 | 1012.9 |
| 20260906035510 | 83 | 104 | 2.0 | 4.0 | 0.00 | 0.00 | 0.00 | 78 | 1012.8 |
| 20260906035010 | 84 | 107 | 1.0 | 4.0 | 0.00 | 0.00 | 0.00 | 77 | 1012.9 |
| 20260906034509 | 84 | 100 | 1.0 | 3.0 | 0.00 | 0.00 | 0.00 | 77 | 1012.8 |
| 20260906034010 | 84 | 114 | 1.0 | 3.0 | 0.00 | 0.00 | 0.00 | 77 | 1012.6 |
| 20260906033510 | 84 | 92 | 1.0 | 2.0 | 0.00 | 0.00 | 0.00 | 76 | 1012.6 |
| 20260906033010 | 84 | 106 | 1.0 | 3.0 | 0.00 | 0.00 | 0.00 | 76 | 1012.3 |
| 20260906032510 | 84 | 100 | 1.0 | 2.0 | 0.00 | 0.00 | 0.00 | 76 | 1012.3 |
| 20260906032010 | 85 | 119 | 1.0 | 4.0 | 0.00 | 0.00 | 0.00 | 75 | 1012.4 |
| 20260906031510 | 85 | 86 | 1.0 | 4.0 | 0.00 | 0.00 | 0.00 | 75 | 1012.4 |
| 20260906031010 | 85 | 104 | 1.0 | 3.0 | 0.00 | 0.00 | 0.00 | 74 | 1012.4 |
| 20260906030510 | 85 | 31 | 2.0 | 3.0 | 0.00 | 0.00 | 0.00 | 74 | 1012.3 |
| 20260906030010 | 85 | 87 | 1.0 | 6.0 | 0.00 | 0.00 | 0.00 | 74 | 1012.3 |
| 20260906025510 | 85 | 102 | 1.0 | 3.0 | 0.00 | 0.00 | 0.00 | 74 | 1012.2 |
| 20260906025010 | 85 | 89 | 1.0 | 2.0 | 0.00 | 0.00 | 0.00 | 73 | 1012.0 |
| 20260906024510 | 85 | 88 | 2.0 | 5.0 | 0.00 | 0.00 | 0.00 | 73 | 1012.0 |
| 20260906024010 | 85 | 104 | 2.0 | 5.0 | 0.00 | 0.00 | 0.00 | 73 | 1012.0 |
| 20260906023510 | 85 | 91 | 1.0 | 3.0 | 0.00 | 0.00 | 0.00 | 73 | 1012.1 |
| 20260906023010 | 85 | 58 | 1.0 | 3.0 | 0.00 | 0.00 | 0.00 | 73 | 1012.1 |
| 20260906022510 | 85 | 44 | 0.0 | 3.0 | 0.00 | 0.00 | 0.00 | 73 | 1012.0 |
| 20260906022010 | 85 | 54 | 0.0 | 2.0 | 0.00 | 0.00 | 0.00 | 73 | 1012.0 |
| 20260906021510 | 85 | 26 | 1.0 | 3.0 | 0.00 | 0.00 | 0.00 | 72 | 1011.9 |
| 20260906021010 | 85 | 55 | 0.0 | 3.0 | 0.00 | 0.00 | 0.00 | 72 | 1011.8 |
| 20260906020510 | 85 | 51 | 0.0 | 1.0 | 0.00 | 0.00 | 0.00 | 71 | 1011.7 |
| 20260906020010 | 85 | 58 | 0.0 | 2.0 | 0.00 | 0.00 | 0.00 | 71 | 1011.6 |
| 20260906015510 | 85 | 63 | 0.0 | 2.0 | 0.00 | 0.00 | 0.00 | 71 | 1011.8 |
| 20260906015010 | 85 | 84 | 0.0 | 1.0 | 0.00 | 0.00 | 0.00 | 71 | 1011.7 |
| 20260906014510 | 84 | 99 | 0.0 | 2.0 | 0.00 | 0.00 | 0.00 | 72 | 1011.6 |
| 20260906014010 | 84 | 88 | 0.0 | 0.0 | 0.00 | 0.00 | 0.00 | 73 | 1011.5 |
| 20260906013510 | 84 | 88 | 0.0 | 0.0 | 0.00 | 0.00 | 0.00 | 73 | 1011.4 |
| 20260906013010 | 84 | 88 | 0.0 | 1.0 | 0.00 | 0.00 | 0.00 | 73 | 1011.5 |
| 20260906012510 | 84 | 88 | 0.0 | 1.0 | 0.00 | 0.00 | 0.00 | 73 | 1011.5 |
| 20260906012010 | 84 | 88 | 0.0 | 0.0 | 0.00 | 0.00 | 0.00 | 72 | 1011.5 |
| 20260906011510 | 85 | 88 | 0.0 | 0.0 | 0.00 | 0.00 | 0.00 | 71 | 1011.5 |
| 20260906011010 | 85 | 88 | 0.0 | 1.0 | 0.00 | 0.00 | 0.00 | 71 | 1011.4 |
| 20260906010510 | 84 | 88 | 0.0 | 0.0 | 0.00 | 0.00 | 0.00 | 71 | 1011.4 |
| 20260906010010 | 85 | 88 | 0.0 | 0.0 | 0.00 | 0.00 | 0.00 | 71 | 1011.1 |
| 20260906005510 | 85 | 88 | 0.0 | 0.0 | 0.00 | 0.00 | 0.00 | 69 | 1011.2 |
| 20260906005010 | 86 | 88 | 0.0 | 0.0 | 0.00 | 0.00 | 0.00 | 69 | 1011.1 |
| 20260906004510 | 86 | 88 | 0.0 | 0.0 | 0.00 | 0.00 | 0.00 | 69 | 1011.3 |
| 20260906004010 | 87 | 88 | 0.0 | 0.0 | 0.00 | 0.00 | 0.00 | 68 | 1011.2 |
| 20260906003510 | 87 | 88 | 0.0 | 0.0 | 0.00 | 0.00 | 0.00 | 67 | 1011.1 |
| 20260906003010 | 88 | 88 | 0.0 | 0.0 | 0.00 | 0.00 | 0.00 | 65 | 1011.1 |
| 20260906002510 | 88 | 88 | 0.0 | 0.0 | 0.00 | 0.00 | 0.00 | 63 | 1011.2 |
| 20260906002010 | 89 | 88 | 0.0 | 1.0 | 0.00 | 0.00 | 0.00 | 63 | 1011.2 |
| 20260906001510 | 89 | 89 | 0.0 | 1.0 | 0.00 | 0.00 | 0.00 | 62 | 1011.2 |
| 20260906001010 | 90 | 56 | 0.0 | 1.0 | 0.00 | 0.00 | 0.00 | 61 | 1011.3 |
| 20260906000511 | 90 | 56 | 0.0 | 1.0 | 0.00 | 0.00 | 0.00 | 60 | 1011.3 |
| 20260906000010 | 91 | 56 | 0.0 | 1.0 | 0.00 | 0.00 | 0.00 | 59 | 1011.3 |
| 20260905235510 | 91 | 56 | 0.0 | 1.0 | 0.00 | 0.00 | 0.00 | 58 | 1011.3 |
| 20260905235010 | 91 | 56 | 0.0 | 1.0 | 0.00 | 0.00 | 0.00 | 58 | 1011.2 |
| 20260905234510 | 92 | 45 | 0.0 | 1.0 | 0.00 | 0.00 | 0.00 | 57 | 1011.3 |
| 20260905234010 | 92 | 84 | 1.0 | 2.0 | 0.00 | 0.00 | 0.00 | 57 | 1011.2 |
| 20260905233510 | 93 | 107 | 1.0 | 3.0 | 0.00 | 0.00 | 0.00 | 55 | 1011.1 |
| 20260905233010 | 93 | 99 | 2.0 | 3.0 | 0.00 | 0.00 | 0.00 | 55 | 1011.0 |
| 20260905232510 | 93 | 118 | 2.0 | 4.0 | 0.00 | 0.00 | 0.00 | 54 | 1010.9 |
| 20260905232010 | 93 | 100 | 2.0 | 5.0 | 0.00 | 0.00 | 0.00 | 53 | 1011.0 |
| 20260905231510 | 94 | 97 | 2.0 | 6.0 | 0.00 | 0.00 | 0.00 | 52 | 1010.9 |
| 20260905231010 | 94 | 104 | 2.0 | 3.0 | 0.00 | 0.00 | 0.00 | 51 | 1010.8 |
| 20260905230510 | 94 | 115 | 3.0 | 5.0 | 0.00 | 0.00 | 0.00 | 50 | 1010.9 |
| 20260905230010 | 94 | 117 | 2.0 | 6.0 | 0.00 | 0.00 | 0.00 | 49 | 1010.9 |
| 20260905225510 | 95 | 100 | 2.0 | 5.0 | 0.00 | 0.00 | 0.00 | 49 | 1010.8 |
| 20260905225010 | 95 | 77 | 3.0 | 6.0 | 0.00 | 0.00 | 0.00 | 49 | 1010.8 |
| 20260905224510 | 95 | 105 | 3.0 | 6.0 | 0.00 | 0.00 | 0.00 | 49 | 1010.8 |
| 20260905224010 | 95 | 112 | 3.0 | 8.0 | 0.00 | 0.00 | 0.00 | 49 | 1010.8 |
| 20260905223510 | 96 | 109 | 3.0 | 7.0 | 0.00 | 0.00 | 0.00 | 49 | 1010.8 |
| 20260905223010 | 96 | 115 | 3.0 | 6.0 | 0.00 | 0.00 | 0.00 | 48 | 1010.8 |
| 20260905222510 | 96 | 81 | 3.0 | 6.0 | 0.00 | 0.00 | 0.00 | 48 | 1010.8 |
| 20260905222011 | 96 | 38 | 3.0 | 5.0 | 0.00 | 0.00 | 0.00 | 49 | 1010.7 |
| 20260905221511 | 96 | 37 | 3.0 | 6.0 | 0.00 | 0.00 | 0.00 | 48 | 1010.8 |
| 20260905221011 | 95 | 98 | 3.0 | 5.0 | 0.00 | 0.00 | 0.00 | 48 | 1010.9 |
| 20260905220511 | 95 | 99 | 4.0 | 7.0 | 0.00 | 0.00 | 0.00 | 48 | 1010.8 |
| 20260905220011 | 95 | 125 | 5.0 | 12.0 | 0.00 | 0.00 | 0.00 | 47 | 1010.8 |
| 20260905215511 | 97 | 96 | 4.0 | 9.0 | 0.00 | 0.00 | 0.00 | 47 | 1010.8 |
| 20260905215011 | 98 | 111 | 3.0 | 9.0 | 0.00 | 0.00 | 0.00 | 46 | 1010.8 |
| 20260905214511 | 99 | 118 | 2.0 | 5.0 | 0.00 | 0.00 | 0.00 | 47 | 1010.8 |
| 20260905214011 | 98 | 127 | 3.0 | 5.0 | 0.00 | 0.00 | 0.00 | 47 | 1010.7 |
| 20260905213511 | 98 | 83 | 3.0 | 8.0 | 0.00 | 0.00 | 0.00 | 47 | 1010.7 |
| 20260905213011 | 97 | 57 | 4.0 | 8.0 | 0.00 | 0.00 | 0.00 | 48 | 1010.6 |
| 20260905212511 | 97 | 141 | 4.0 | 10.0 | 0.00 | 0.00 | 0.00 | 48 | 1010.5 |
| 20260905212011 | 97 | 120 | 5.0 | 11.0 | 0.00 | 0.00 | 0.00 | 48 | 1010.5 |
| 20260905211511 | 98 | 102 | 5.0 | 11.0 | 0.00 | 0.00 | 0.00 | 47 | 1010.6 |
| 20260905211011 | 99 | 121 | 5.0 | 13.0 | 0.00 | 0.00 | 0.00 | 44 | 1010.6 |
| 20260905210511 | 100 | 41 | 4.0 | 8.0 | 0.00 | 0.00 | 0.00 | 42 | 1010.6 |
| 20260905210011 | 101 | 127 | 3.0 | 10.0 | 0.00 | 0.00 | 0.00 | 43 | 1010.7 |
| 20260905205511 | 101 | 10 | 2.0 | 8.0 | 0.00 | 0.00 | 0.00 | 39 | 1010.6 |
| 20260905205011 | 100 | 110 | 1.0 | 4.0 | 0.00 | 0.00 | 0.00 | 39 | 1010.6 |
| 20260905204511 | 101 | 60 | 1.0 | 2.0 | 0.00 | 0.00 | 0.00 | 37 | 1010.6 |
| 20260905204011 | 102 | 12 | 2.0 | 12.0 | 0.00 | 0.00 | 0.00 | 36 | 1010.8 |
| 20260905203511 | 103 | 45 | 2.0 | 12.0 | 0.00 | 0.00 | 0.00 | 36 | 1010.8 |
| 20260905203011 | 103 | 358 | 2.0 | 8.0 | 0.00 | 0.00 | 0.00 | 38 | 1011.0 |
| 20260905202511 | 102 | 356 | 2.0 | 7.0 | 0.00 | 0.00 | 0.00 | 38 | 1011.0 |
| 20260905202011 | 102 | 38 | 2.0 | 5.0 | 0.00 | 0.00 | 0.00 | 39 | 1011.2 |
| 20260905201511 | 102 | 96 | 2.0 | 11.0 | 0.00 | 0.00 | 0.00 | 39 | 1011.2 |
| 20260905201011 | 102 | 52 | 1.0 | 5.0 | 0.00 | 0.00 | 0.00 | 40 | 1011.4 |
| 20260905200511 | 101 | 358 | 1.0 | 2.0 | 0.00 | 0.00 | 0.00 | 41 | 1011.3 |
| 20260905200011 | 100 | 88 | 1.0 | 4.0 | 0.00 | 0.00 | 0.00 | 42 | 1011.4 |
| 20260905195511 | 99 | 359 | 1.0 | 8.0 | 0.00 | 0.00 | 0.00 | 43 | 1011.4 |
| 20260905195011 | 100 | 62 | 2.0 | 5.0 | 0.00 | 0.00 | 0.00 | 41 | 1011.5 |
| 20260905194511 | 101 | 87 | 2.0 | 5.0 | 0.00 | 0.00 | 0.00 | 41 | 1011.3 |
| 20260905194011 | 100 | 8 | 1.0 | 8.0 | 0.00 | 0.00 | 0.00 | 44 | 1011.5 |
| 20260905193511 | 101 | 359 | 2.0 | 4.0 | 0.00 | 0.00 | 0.00 | 41 | 1011.4 |
| 20260905193011 | 100 | 99 | 2.0 | 6.0 | 0.00 | 0.00 | 0.00 | 40 | 1011.5 |
| 20260905192511 | 100 | 94 | 1.0 | 8.0 | 0.00 | 0.00 | 0.00 | 40 | 1011.6 |
| 20260905192011 | 100 | 60 | 1.0 | 7.0 | 0.00 | 0.00 | 0.00 | 42 | 1011.6 |
| 20260905191511 | 99 | 1 | 2.0 | 7.0 | 0.00 | 0.00 | 0.00 | 44 | 1011.6 |
| 20260905191011 | 98 | 38 | 2.0 | 8.0 | 0.00 | 0.00 | 0.00 | 43 | 1011.7 |
| 20260905190511 | 98 | 93 | 1.0 | 3.0 | 0.00 | 0.00 | 0.00 | 44 | 1011.8 |
| 20260905190011 | 99 | 44 | 1.0 | 2.0 | 0.00 | 0.00 | 0.00 | 45 | 1011.9 |
| 20260905185511 | 99 | 30 | 1.0 | 5.0 | 0.00 | 0.00 | 0.00 | 42 | 1011.9 |
| 20260905185011 | 99 | 94 | 1.0 | 2.0 | 0.00 | 0.00 | 0.00 | 42 | 1012.0 |
| 20260905184511 | 100 | 13 | 2.0 | 8.0 | 0.00 | 0.00 | 0.00 | 42 | 1012.1 |
| 20260905184011 | 101 | 15 | 1.0 | 7.0 | 0.00 | 0.00 | 0.00 | 41 | 1012.1 |
| 20260905183511 | 101 | 52 | 0.0 | 2.0 | 0.00 | 0.00 | 0.00 | 41 | 1012.1 |
| 20260905183011 | 101 | 335 | 2.0 | 3.0 | 0.00 | 0.00 | 0.00 | 44 | 1012.1 |
| 20260905182511 | 100 | 25 | 3.0 | 6.0 | 0.00 | 0.00 | 0.00 | 41 | 1012.2 |
| 20260905182011 | 101 | 154 | 2.0 | 8.0 | 0.00 | 0.00 | 0.00 | 41 | 1012.3 |
| 20260905181511 | 102 | 29 | 1.0 | 2.0 | 0.00 | 0.00 | 0.00 | 44 | 1012.3 |
| 20260905181011 | 101 | 170 | 2.0 | 11.0 | 0.00 | 0.00 | 0.00 | 44 | 1012.4 |
| 20260905180511 | 101 | 247 | 2.0 | 5.0 | 0.00 | 0.00 | 0.00 | 42 | 1012.4 |
| 20260905180011 | 101 | 219 | 1.0 | 6.0 | 0.00 | 0.00 | 0.00 | 43 | 1012.5 |
| 20260905175511 | 101 | 15 | 1.0 | 4.0 | 0.00 | 0.00 | 0.00 | 41 | 1012.5 |
| 20260905175011 | 101 | 247 | 1.0 | 5.0 | 0.00 | 0.00 | 0.00 | 43 | 1012.4 |
| 20260905174511 | 101 | 96 | 1.0 | 4.0 | 0.00 | 0.00 | 0.00 | 42 | 1012.5 |
| 20260905174011 | 101 | 310 | 1.0 | 2.0 | 0.00 | 0.00 | 0.00 | 43 | 1012.6 |
| 20260905173511 | 101 | 286 | 2.0 | 6.0 | 0.00 | 0.00 | 0.00 | 43 | 1012.6 |
| 20260905173011 | 100 | 229 | 1.0 | 7.0 | 0.00 | 0.00 | 0.00 | 47 | 1012.8 |
| 20260905172511 | 100 | 25 | 1.0 | 6.0 | 0.00 | 0.00 | 0.00 | 44 | 1012.7 |
| 20260905172011 | 101 | 98 | 0.0 | 2.0 | 0.00 | 0.00 | 0.00 | 44 | 1012.7 |
| 20260905171511 | 100 | 61 | 0.0 | 2.0 | 0.00 | 0.00 | 0.00 | 44 | 1012.8 |
| 20260905171011 | 100 | 233 | 0.0 | 2.0 | 0.00 | 0.00 | 0.00 | 43 | 1013.0 |
| 20260905170511 | 100 | 290 | 0.0 | 4.0 | 0.00 | 0.00 | 0.00 | 45 | 1012.8 |
| 20260905170011 | 99 | 318 | 0.0 | 2.0 | 0.00 | 0.00 | 0.00 | 45 | 1013.1 |
| 20260905165511 | 99 | 291 | 1.0 | 2.0 | 0.00 | 0.00 | 0.00 | 45 | 1013.1 |
| 20260905165012 | 99 | 336 | 1.0 | 5.0 | 0.00 | 0.00 | 0.00 | 47 | 1013.2 |
| 20260905164512 | 99 | 231 | 0.0 | 3.0 | 0.00 | 0.00 | 0.00 | 43 | 1013.3 |
| 20260905164012 | 98 | 327 | 1.0 | 2.0 | 0.00 | 0.00 | 0.00 | 46 | 1013.3 |
| 20260905163512 | 98 | 247 | 1.0 | 5.0 | 0.00 | 0.00 | 0.00 | 46 | 1013.4 |
| 20260905163012 | 98 | 348 | 0.0 | 2.0 | 0.00 | 0.00 | 0.00 | 49 | 1013.6 |
| 20260905162512 | 97 | 291 | 0.0 | 2.0 | 0.00 | 0.00 | 0.00 | 49 | 1013.6 |
| 20260905162012 | 97 | 104 | 0.0 | 2.0 | 0.00 | 0.00 | 0.00 | 49 | 1013.6 |
| 20260905161512 | 97 | 175 | 0.0 | 2.0 | 0.00 | 0.00 | 0.00 | 49 | 1013.6 |
| 20260905161012 | 96 | 158 | 0.0 | 2.0 | 0.00 | 0.00 | 0.00 | 51 | 1013.6 |
| 20260905160512 | 96 | 210 | 0.0 | 3.0 | 0.00 | 0.00 | 0.00 | 51 | 1013.6 |
| 20260905160012 | 96 | 245 | 0.0 | 3.0 | 0.00 | 0.00 | 0.00 | 54 | 1013.7 |
| 20260905155512 | 95 | 294 | 0.0 | 1.0 | 0.00 | 0.00 | 0.00 | 55 | 1013.8 |
| 20260905155012 | 95 | 238 | 0.0 | 4.0 | 0.00 | 0.00 | 0.00 | 54 | 1013.9 |
| 20260905154512 | 95 | 54 | 0.0 | 2.0 | 0.00 | 0.00 | 0.00 | 54 | 1014.0 |
| 20260905154012 | 94 | 98 | 0.0 | 2.0 | 0.00 | 0.00 | 0.00 | 54 | 1013.9 |
| 20260905153512 | 94 | 331 | 0.0 | 1.0 | 0.00 | 0.00 | 0.00 | 55 | 1014.0 |
| 20260905153012 | 94 | 267 | 0.0 | 2.0 | 0.00 | 0.00 | 0.00 | 55 | 1014.0 |
| 20260905152512 | 93 | 332 | 0.0 | 3.0 | 0.00 | 0.00 | 0.00 | 56 | 1014.0 |
| 20260905152012 | 93 | 18 | 0.0 | 1.0 | 0.00 | 0.00 | 0.00 | 57 | 1014.0 |
| 20260905151512 | 93 | 322 | 0.0 | 1.0 | 0.00 | 0.00 | 0.00 | 59 | 1013.9 |
| 20260905151012 | 93 | 19 | 0.0 | 1.0 | 0.00 | 0.00 | 0.00 | 58 | 1013.8 |
| 20260905150512 | 92 | 325 | 0.0 | 1.0 | 0.00 | 0.00 | 0.00 | 57 | 1013.8 |
| 20260905150012 | 92 | 316 | 0.0 | 1.0 | 0.00 | 0.00 | 0.00 | 57 | 1013.8 |
| 20260905145512 | 92 | 308 | 0.0 | 1.0 | 0.00 | 0.00 | 0.00 | 59 | 1013.7 |
| 20260905145012 | 91 | 329 | 0.0 | 1.0 | 0.00 | 0.00 | 0.00 | 59 | 1013.8 |
| 20260905144512 | 91 | 303 | 0.0 | 1.0 | 0.00 | 0.00 | 0.00 | 60 | 1014.0 |
| 20260905144012 | 90 | 318 | 0.0 | 1.0 | 0.00 | 0.00 | 0.00 | 61 | 1013.8 |
| 20260905143512 | 90 | 233 | 0.0 | 0.0 | 0.00 | 0.00 | 0.00 | 64 | 1014.0 |
| 20260905143012 | 89 | 234 | 0.0 | 1.0 | 0.00 | 0.00 | 0.00 | 63 | 1014.0 |
| 20260905142512 | 88 | 256 | 0.0 | 4.0 | 0.00 | 0.00 | 0.00 | 66 | 1014.0 |
| 20260905142106 | 88 | 250 | 0.0 | 1.0 | 0.00 | 0.00 | 0.00 | 68 | 1014.0 |
| 20260905142012 | 88 | 250 | 0.0 | 1.0 | 0.00 | 0.00 | 0.00 | 68 | 1014.0 |
| 20260905141512 | 87 | 242 | 0.0 | 1.0 | 0.00 | 0.00 | 0.00 | 71 | 1014.0 |
| 20260905141012 | 86 | 227 | 0.0 | 0.0 | 0.00 | 0.00 | 0.00 | 73 | 1013.9 |
| 20260905140512 | 85 | 227 | 0.0 | 1.0 | 0.00 | 0.00 | 0.00 | 73 | 1014.0 |
| 20260905140012 | 85 | 237 | 0.0 | 1.0 | 0.00 | 0.00 | 0.00 | 75 | 1014.2 |
| 20260905135512 | 84 | 279 | 0.0 | 1.0 | 0.00 | 0.00 | 0.00 | 76 | 1014.2 |
| 20260905135012 | 83 | 231 | 0.0 | 0.0 | 0.00 | 0.00 | 0.00 | 79 | 1014.2 |
| 20260905134512 | 82 | 231 | 0.0 | 0.0 | 0.00 | 0.00 | 0.00 | 81 | 1014.2 |
| 20260905134012 | 81 | 264 | 0.0 | 0.0 | 0.00 | 0.00 | 0.00 | 82 | 1014.1 |
| 20260905133512 | 80 | 268 | 0.0 | 0.0 | 0.00 | 0.00 | 0.00 | 84 | 1014.1 |
| 20260905133012 | 80 | 268 | 0.0 | 0.0 | 0.00 | 0.00 | 0.00 | 85 | 1014.0 |
| 20260905132512 | 79 | 268 | 0.0 | 0.0 | 0.00 | 0.00 | 0.00 | 86 | 1014.0 |
| 20260905132012 | 78 | 268 | 0.0 | 0.0 | 0.00 | 0.00 | 0.00 | 86 | 1014.0 |
| 20260905131512 | 77 | 268 | 0.0 | 0.0 | 0.00 | 0.00 | 0.00 | 87 | 1014.2 |
| 20260905131012 | 77 | 268 | 0.0 | 0.0 | 0.00 | 0.00 | 0.00 | 88 | 1014.3 |
| 20260905130512 | 76 | 268 | 0.0 | 0.0 | 0.00 | 0.00 | 0.00 | 89 | 1014.2 |
| 20260905130012 | 75 | 268 | 0.0 | 0.0 | 0.00 | 0.00 | 0.00 | 90 | 1014.3 |
| 20260905125512 | 75 | 268 | 0.0 | 0.0 | 0.00 | 0.00 | 0.00 | 92 | 1014.4 |
| 20260905125012 | 74 | 268 | 0.0 | 0.0 | 0.00 | 0.00 | 0.00 | 93 | 1014.4 |
| 20260905124512 | 74 | 268 | 0.0 | 0.0 | 0.00 | 0.00 | 0.00 | 93 | 1014.3 |
| 20260905124012 | 73 | 268 | 0.0 | 0.0 | 0.00 | 0.00 | 0.00 | 93 | 1014.1 |
| 20260905123512 | 73 | 268 | 0.0 | 0.0 | 0.00 | 0.00 | 0.00 | 93 | 1014.1 |
| 20260905123012 | 73 | 268 | 0.0 | 0.0 | 0.00 | 0.00 | 0.00 | 93 | 1014.2 |
| 20260905122512 | 72 | 268 | 0.0 | 0.0 | 0.00 | 0.00 | 0.00 | 93 | 1014.1 |
| 20260905122012 | 72 | 268 | 0.0 | 0.0 | 0.00 | 0.00 | 0.00 | 93 | 1014.0 |
| 20260905121512 | 72 | 268 | 0.0 | 0.0 | 0.00 | 0.00 | 0.00 | 93 | 1013.9 |
| 20260905121012 | 72 | 268 | 0.0 | 0.0 | 0.00 | 0.00 | 0.00 | 93 | 1014.0 |
| 20260905120512 | 72 | 268 | 0.0 | 0.0 | 0.00 | 0.00 | 0.00 | 93 | 1014.0 |
| 20260905120012 | 72 | 268 | 0.0 | 0.0 | 0.00 | 0.00 | 0.00 | 93 | 1014.0 |
| 20260905115512 | 72 | 268 | 0.0 | 0.0 | 0.00 | 0.00 | 0.00 | 93 | 1014.0 |
| 20260905115012 | 72 | 268 | 0.0 | 0.0 | 0.00 | 0.00 | 0.00 | 93 | 1014.0 |
| 20260905114512 | 71 | 268 | 0.0 | 0.0 | 0.00 | 0.00 | 0.00 | 92 | 1014.0 |
| 20260905114012 | 71 | 268 | 0.0 | 0.0 | 0.00 | 0.00 | 0.00 | 92 | 1014.0 |
| 20260905113512 | 72 | 268 | 0.0 | 0.0 | 0.00 | 0.00 | 0.00 | 92 | 1013.9 |
| 20260905113012 | 72 | 268 | 0.0 | 0.0 | 0.00 | 0.00 | 0.00 | 92 | 1013.8 |
| 20260905112513 | 72 | 268 | 0.0 | 0.0 | 0.00 | 0.00 | 0.00 | 92 | 1013.8 |
| 20260905112012 | 72 | 268 | 0.0 | 0.0 | 0.00 | 0.00 | 0.00 | 92 | 1013.8 |